Morgantown, WV

8:44 PM EST on February 09, 2016 (GMT -0500)
Morgantown Municipal-Hart

Weather History for KMGW - November, 2013

Change the Weather History Date:

Tuesday, November 19, 2013

  Actual Average Record
Temperature  
Mean Temperature 35 °F 44 °F  
Max Temperature 41 °F 52 °F 77 °F (1985)
Min Temperature 29 °F 35 °F 16 °F (2014)
Degree Days  
Heating Degree Days 30 21  
Month to date heating degree days 370 346  
Since 1 July heating degree days 770 788  
Cooling Degree Days 0 0  
Month to date cooling degree days 0 0  
Year to date cooling degree days 906 813  
Moisture  
Dew Point 24 °F    
Average Humidity 62    
Maximum Humidity 72    
Minimum Humidity 51    
Precipitation  
Precipitation 0.00 in 0.12 in 2.66 in (2003)
Month to date precipitation 1.81 2.18  
Year to date precipitation 34.79 37.64  
Sea Level Pressure  
Sea Level Pressure 30.27 in    
Wind  
Wind Speed 5 mph (NNW)    
Max Wind Speed 15 mph    
Max Gust Speed 22 mph    
Visibility 10 miles    
Events      
T = Trace of Precipitation, MM = Missing Value Source: NWS Daily Summary

Daily Weather History Graph

Daily Weather History Graph

Search for Another Location

Airport or City:

Trip Planner

Search our weather history database for the weather conditions in past years. The results will help you decide how hot, cold, wet, or windy it might be!

Date:

Astronomy

Nov. 19, 2013 Rise Set
Actual Time 7:08 AM EST 5:01 PM EST
Civil Twilight 6:39 AM EST 5:30 PM EST
Nautical Twilight 6:06 AM EST 6:03 PM EST
Astronomical Twilight 5:34 AM EST 6:35 PM EST
Moon 6:51 PM EST (11/19) 8:46 AM EST (11/19)
Length of Visible Light 10h 50m
Length of Day
9h 52m
Waning Gibbous, 96% of the Moon is Illuminated
Nov 19
Waning Gibbous
Nov 25
Last Quarter
Dec 2
New
Dec 9
First Quarter
Dec 17
Full

Hourly Weather History & Observations

Time (EST) Temp. Windchill Dew Point Humidity Pressure Visibility Wind Dir Wind Speed Gust Speed Precip Events Conditions
12:53 AM 39.9 °F 32.9 °F 24.1 °F 53% 30.09 in 10.0 mi WNW 11.5 mph 19.6 mph N/A   Overcast
1:53 AM 39.0 °F 34.0 °F 24.1 °F 55% 30.10 in 10.0 mi NW 6.9 mph - N/A   Overcast
2:53 AM 37.9 °F 34.4 °F 24.1 °F 57% 30.12 in 10.0 mi WNW 4.6 mph - N/A   Overcast
3:53 AM 37.0 °F 32.4 °F 24.1 °F 59% 30.13 in 10.0 mi NNW 5.8 mph - N/A   Overcast
4:53 AM 37.0 °F 32.4 °F 23.0 °F 57% 30.16 in 10.0 mi NW 5.8 mph - N/A   Overcast
5:53 AM 36.0 °F 29.6 °F 25.0 °F 64% 30.17 in 10.0 mi North 8.1 mph - N/A   Overcast
6:53 AM 35.1 °F 29.3 °F 24.1 °F 64% 30.21 in 10.0 mi North 6.9 mph - N/A   Overcast
7:10 AM 35.6 °F 28.6 °F 24.8 °F 65% 30.19 in 10.0 mi North 9.2 mph - N/A   Overcast
7:53 AM 35.1 °F 30.1 °F 23.0 °F 61% 30.24 in 10.0 mi Variable 5.8 mph 17.3 mph N/A   Overcast
8:53 AM 35.1 °F 32.2 °F 24.1 °F 64% 30.27 in 10.0 mi NW 3.5 mph - N/A   Overcast
9:22 AM 35.6 °F 31.7 °F 24.8 °F 65% 30.26 in 10.0 mi NW 4.6 mph - N/A   Overcast
9:53 AM 36.0 °F 32.1 °F 24.1 °F 62% 30.29 in 10.0 mi NW 4.6 mph - N/A   Overcast
10:53 AM 36.0 °F 31.1 °F 24.1 °F 62% 30.31 in 10.0 mi NW 5.8 mph - N/A   Overcast
11:53 AM 37.0 °F 33.3 °F 24.1 °F 59% 30.31 in 10.0 mi NNW 4.6 mph - N/A   Overcast
12:53 PM 37.9 °F 32.7 °F 25.0 °F 60% 30.31 in 10.0 mi Variable 6.9 mph - N/A   Overcast
1:53 PM 37.9 °F 33.5 °F 25.0 °F 60% 30.30 in 10.0 mi Variable 5.8 mph - N/A   Overcast
2:53 PM 37.9 °F 33.5 °F 25.0 °F 60% 30.30 in 10.0 mi North 5.8 mph - N/A   Overcast
3:53 PM 37.0 °F 31.0 °F 26.1 °F 65% 30.32 in 10.0 mi North 8.1 mph - N/A   Overcast
4:53 PM 37.0 °F 31.0 °F 25.0 °F 62% 30.33 in 10.0 mi North 8.1 mph - N/A   Overcast
5:53 PM 36.0 °F - 24.1 °F 62% 30.35 in 10.0 mi Calm Calm - N/A   Overcast
6:53 PM 36.0 °F 32.1 °F 23.0 °F 59% 30.37 in 10.0 mi Variable 4.6 mph - N/A   Overcast
7:53 PM 33.1 °F 28.7 °F 23.0 °F 66% 30.38 in 10.0 mi North 4.6 mph - N/A   Scattered Clouds
8:53 PM 32.0 °F 28.7 °F 21.9 °F 66% 30.40 in 10.0 mi North 3.5 mph - N/A   Clear
9:53 PM 30.9 °F 27.5 °F 23.0 °F 72% 30.41 in 10.0 mi NE 3.5 mph - N/A   Clear
10:53 PM 30.9 °F 27.5 °F 23.0 °F 72% 30.41 in 10.0 mi NNE 3.5 mph - N/A   Clear
11:53 PM 28.9 °F 25.2 °F 23.0 °F 78% 30.41 in 10.0 mi NNE 3.5 mph - N/A   Clear